Regional Weather Roundup
Issued by NWS Green Bay, WI

Home | Current Version | Previous Version | Text Only | Print | Product List | Glossary On
Versions: 1 2 3 4 5 6 7 8 9 10 11 12 13 14 15 16 17 18 19 20 21 22 23 24 25 26 27 28 29 30 31 32 33 34 35 36 37 38 39 40 41 42 43 44 45 46 47 48 49 50
000
ASUS43 KGRB 240200
RWRGRB

NORTH-CENTRAL AND NORTHEAST WISCONSIN REGIONAL WEATHER ROUNDUP
NATIONAL WEATHER SERVICE GREEN BAY WI
800 PM CST THU FEB 23 2017

WIZ005-009-010>012-018-019-240300-
NORTH CENTRAL WISCONSIN

CITY           SKY/WX    TMP DP  RH WIND       PRES   REMARKS
IRONWOOD       PTCLDY    27  24  89 W3        29.96R
MANITOWISH WTR NOT AVBL
ARBOR VITAE    NOT AVBL
EAGLE RIVER    NOT AVBL
LAND O LAKES   NOT AVBL
RHINELANDER    CLOUDY    31  25  78 N6        29.91R
PHILLIPS       NOT AVBL
ANTIGO         NOT AVBL
TOMAHAWK       NOT AVBL
MERRILL        NOT AVBL
$$

WIZ013-073-240300-
NORTHEAST WISCONSIN

CITY           SKY/WX    TMP DP  RH WIND       PRES   REMARKS
IRON MOUNTAIN  CLOUDY    32  23  69 N5        29.90S
MARINETTE      CLOUDY    34  27  75 E9        29.94S
$$

WIZ017-030-035>037-045-240300-
CENTRAL WISCONSIN

CITY           SKY/WX    TMP DP  RH WIND       PRES   REMARKS
MEDFORD        NOT AVBL
WAUSAU         CLOUDY    37  24  59 NE7       29.86S
MOSINEE        CLOUDY    37  25  60 N10       29.88R
MARSHFIELD     CLOUDY    38  25  59 NE9       29.86R
WISC RAPIDS    CLOUDY    40  25  55 NE9       29.86R
STEVENS POINT  NOT AVBL
WAUPACA        NOT AVBL
SHAWANO        CLOUDY    36  28  72 E7        29.91R
CLINTONVILLE   NOT AVBL
WAUTOMA        CLOUDY    38  30  73 E8        29.84F
$$

WIZ038-039-048-051-240300-
FOX VALLEY

CITY           SKY/WX    TMP DP  RH WIND       PRES   REMARKS
NWS GREEN BAY  CLOUDY    36  29  75 NE9       29.90R
APPLETON       CLOUDY    36  27  69 E10       29.87R
OSHKOSH        CLOUDY    35  28  75 NE12      29.85F
FOND DU LAC    CLOUDY    36  27  69 NE13      29.85F
$$

WIZ022-050-052-240300-
EAST CENTRAL WISCONSIN

CITY           SKY/WX    TMP DP  RH WIND       PRES   REMARKS
EPHRAIM        NOT AVBL
WASHINGTON ISL NOT AVBL
STURGEON BAY   CLOUDY    35  25  66 NE8G17    29.91F
MANITOWOC      NOT AVBL
SHEBOYGAN      CLOUDY    35  30  82 NE15      29.85F
$$

LMZ563-521-522-541>543-240300-
LAKESHORE

STATION/POSITION TIME  TEMP    WIND        PRES    VSBY  WAVE
                       AIR SEA DIR/SP/G                  HT/PER
                 (UTC) (F)     (DEG/KT/KT) (MB)    (MI)  (FT/S)
SHEBOYGAN LKSHOR 0100   36      40/ 20/ 22 1011.6F
KEWAUNEE LKSHORE 0130   36      50/ 12/ 18 1011.7F
SISTER BAY LKSHO 0105   34      CALM  /  2   N/A
MENOMINEE LKSHOR 0130   33      40/ 12/ 22 1012.5F
$$




USA.gov is the U.S. government's official web portal to all federal, state and local government web resources and services.